Location: Vihti�l�
(61.3833°N, 23.0667°E)
Time: 03:50:44
(UTC+00:00)

H-2A R/B - Pass Details

Date: 29 November 2020
Orbit: 529 x 651 km, 98.3° (Epoch: 19 January)

Event Time Altitude Azimuth Distance (km) Brightness Sun altitude
Rises 04:52:38 0° 18° (NNE) 2,741 5.9 -14.6°
Reaches altitude 10° 04:54:48 10° 21° (NNE) 1,828 5.0 -14.3°
Maximum altitude 04:58:44 74° 106° (ESE) 566 2.5 -13.9°
Drops below altitude 10° 05:02:34 10° 193° (SSW) 1,783 5.0 -13.5°
Sets 05:04:39 0° 195° (SSW) 2,666 5.9 -13.2°
